| time (UTC) | temp C | wind direction | speed KPH | gust KPH | rain 1hr cm | rain 24hr cm | rain mn cm | humidity % | barometer mb |
| 20260506164051 | 15 | 360 | 0.0 | 0.0 | 0.00 | 0.00 | 0.00 | 75 | 1019.9 |
| 20260506163547 | 15 | 360 | 0.0 | 0.0 | 0.00 | 0.00 | 0.00 | 76 | 1020.0 |
| 20260506163105 | 15 | 360 | 0.0 | 0.0 | 0.00 | 0.00 | 0.00 | 76 | 1020.0 |
| 20260506162544 | 15 | 360 | 0.0 | 0.0 | 0.00 | 0.00 | 0.00 | 77 | 1020.0 |
| 20260506162046 | 15 | 360 | 0.0 | 0.0 | 0.00 | 0.00 | 0.00 | 78 | 1020.0 |
| 20260506161540 | 14 | 360 | 0.0 | 0.0 | 0.00 | 0.00 | 0.00 | 79 | 1020.0 |
| 20260506161042 | 14 | 360 | 0.0 | 0.0 | 0.00 | 0.00 | 0.00 | 80 | 1020.0 |
| 20260506160537 | 14 | 360 | 0.0 | 0.0 | 0.00 | 0.00 | 0.00 | 80 | 1020.0 |
| 20260506160037 | 14 | 199 | 0.0 | 0.0 | 0.00 | 0.00 | 0.00 | 80 | 1020.0 |
| 20260506155535 | 13 | 198 | 0.0 | 0.0 | 0.00 | 0.00 | 0.00 | 80 | 1020.1 |
| 20260506155036 | 13 | 198 | 0.0 | 0.0 | 0.00 | 0.00 | 0.00 | 81 | 1020.1 |
| 20260506154541 | 13 | 236 | 0.0 | 0.0 | 0.00 | 0.00 | 0.00 | 82 | 1020.0 |
| 20260506154033 | 13 | 360 | 0.0 | 0.0 | 0.00 | 0.00 | 0.00 | 83 | 1020.2 |
| 20260506153531 | 13 | 360 | 0.0 | 0.0 | 0.00 | 0.00 | 0.00 | 83 | 1020.1 |
| 20260506153031 | 13 | 360 | 0.0 | 0.0 | 0.00 | 0.00 | 0.00 | 83 | 1020.1 |
| 20260506152530 | 13 | 360 | 0.0 | 0.0 | 0.00 | 0.00 | 0.00 | 83 | 1020.1 |
| 20260506152028 | 13 | 234 | 0.0 | 0.0 | 0.00 | 0.00 | 0.00 | 84 | 1020.2 |
| 20260506151528 | 13 | 360 | 0.0 | 0.0 | 0.00 | 0.00 | 0.00 | 85 | 1020.2 |
| 20260506151028 | 13 | 236 | 0.0 | 0.0 | 0.00 | 0.00 | 0.00 | 85 | 1020.1 |
| 20260506150525 | 12 | 236 | 0.0 | 0.0 | 0.00 | 0.00 | 0.00 | 86 | 1020.2 |
| 20260506150027 | 12 | 236 | 0.0 | 0.0 | 0.00 | 0.00 | 0.00 | 86 | 1020.1 |
| 20260506145527 | 12 | 236 | 0.0 | 0.0 | 0.00 | 0.00 | 0.00 | 86 | 1020.1 |
| 20260506145022 | 12 | 236 | 0.0 | 0.0 | 0.00 | 0.00 | 0.00 | 87 | 1020.1 |
| 20260506144524 | 12 | 236 | 0.0 | 0.0 | 0.00 | 0.00 | 0.00 | 87 | 1020.1 |
| 20260506144020 | 12 | 236 | 0.0 | 0.0 | 0.00 | 0.00 | 0.00 | 88 | 1020.1 |
| 20260506143522 | 12 | 236 | 0.0 | 0.0 | 0.00 | 0.00 | 0.00 | 88 | 1020.0 |
| 20260506143019 | 12 | 236 | 0.0 | 0.0 | 0.00 | 0.00 | 0.00 | 88 | 1019.9 |
| 20260506142517 | 12 | 236 | 0.0 | 0.0 | 0.00 | 0.00 | 0.00 | 88 | 1019.9 |
| 20260506142017 | 12 | 360 | 0.0 | 0.0 | 0.00 | 0.00 | 0.00 | 88 | 1019.9 |
| 20260506141516 | 12 | 360 | 0.0 | 0.0 | 0.00 | 0.00 | 0.00 | 89 | 1019.8 |
| 20260506141015 | 12 | 360 | 0.0 | 0.0 | 0.00 | 0.00 | 0.00 | 88 | 1019.7 |
| 20260506140516 | 12 | 360 | 0.0 | 0.0 | 0.00 | 0.00 | 0.00 | 88 | 1019.8 |
| 20260506140013 | 12 | 360 | 0.0 | 0.0 | 0.00 | 0.00 | 0.00 | 88 | 1019.7 |
| 20260506135512 | 12 | 360 | 0.0 | 0.0 | 0.00 | 0.00 | 0.00 | 88 | 1019.7 |
| 20260506135013 | 12 | 360 | 0.0 | 0.0 | 0.00 | 0.00 | 0.00 | 88 | 1019.7 |
| 20260506134509 | 12 | 360 | 0.0 | 0.0 | 0.00 | 0.00 | 0.00 | 88 | 1019.5 |
| 20260506134011 | 12 | 360 | 0.0 | 0.0 | 0.00 | 0.00 | 0.00 | 88 | 1019.4 |
| 20260506133508 | 12 | 360 | 0.0 | 0.0 | 0.00 | 0.00 | 0.00 | 88 | 1019.5 |
| 20260506133007 | 12 | 360 | 0.0 | 0.0 | 0.00 | 0.00 | 0.00 | 88 | 1019.5 |
| 20260506132506 | 12 | 360 | 0.0 | 0.0 | 0.00 | 0.00 | 0.00 | 88 | 1019.4 |
| 20260506132006 | 12 | 360 | 0.0 | 0.0 | 0.00 | 0.00 | 0.00 | 88 | 1019.4 |
| 20260506131508 | 12 | 360 | 0.0 | 0.0 | 0.00 | 0.00 | 0.00 | 88 | 1019.3 |
| 20260506131007 | 12 | 360 | 0.0 | 0.0 | 0.00 | 0.00 | 0.00 | 88 | 1019.2 |
| 20260506130509 | 12 | 360 | 0.0 | 0.0 | 0.00 | 0.00 | 0.00 | 88 | 1019.2 |
| 20260506130005 | 12 | 360 | 0.0 | 0.0 | 0.00 | 0.00 | 0.00 | 88 | 1019.2 |
| 20260506125504 | 12 | 360 | 0.0 | 0.0 | 0.00 | 0.00 | 0.00 | 88 | 1019.2 |
| 20260506125004 | 12 | 360 | 0.0 | 0.0 | 0.00 | 0.00 | 0.00 | 88 | 1019.1 |
| 20260506124505 | 12 | 360 | 0.0 | 0.0 | 0.00 | 0.00 | 0.00 | 88 | 1019.2 |
| 20260506124003 | 12 | 360 | 0.0 | 0.0 | 0.00 | 0.00 | 0.00 | 88 | 1019.0 |
| 20260506123504 | 11 | 360 | 0.0 | 0.0 | 0.00 | 0.00 | 0.00 | 88 | 1019.1 |
| 20260506123002 | 11 | 360 | 0.0 | 0.0 | 0.00 | 0.00 | 0.00 | 88 | 1019.1 |
| 20260506122502 | 11 | 360 | 0.0 | 0.0 | 0.00 | 0.00 | 0.00 | 88 | 1019.0 |
| 20260506122002 | 11 | 360 | 0.0 | 0.0 | 0.00 | 0.00 | 0.00 | 88 | 1019.0 |
| 20260506121502 | 11 | 360 | 0.0 | 0.0 | 0.00 | 0.00 | 0.00 | 88 | 1019.0 |
| 20260506121001 | 11 | 360 | 0.0 | 0.0 | 0.00 | 0.00 | 0.00 | 88 | 1019.0 |
| 20260506120501 | 11 | 360 | 0.0 | 0.0 | 0.00 | 0.00 | 0.00 | 88 | 1019.0 |
| 20260506115600 | 11 | 360 | 0.0 | 0.0 | 0.00 | 0.03 | 0.00 | 88 | 1019.0 |
| 20260506115059 | 11 | 360 | 0.0 | 0.0 | 0.00 | 0.03 | 0.00 | 88 | 1018.9 |
| 20260506114607 | 11 | 360 | 0.0 | 0.0 | 0.00 | 0.03 | 0.00 | 88 | 1018.9 |
| 20260506114101 | 11 | 360 | 0.0 | 0.0 | 0.00 | 0.03 | 0.00 | 88 | 1018.9 |
| 20260506113559 | 11 | 360 | 0.0 | 0.0 | 0.00 | 0.03 | 0.00 | 88 | 1018.9 |
| 20260506113058 | 11 | 360 | 0.0 | 0.0 | 0.00 | 0.03 | 0.00 | 88 | 1018.8 |
| 20260506112557 | 11 | 360 | 0.0 | 0.0 | 0.00 | 0.03 | 0.00 | 88 | 1018.8 |
| 20260506112056 | 11 | 360 | 0.0 | 0.0 | 0.00 | 0.03 | 0.00 | 88 | 1018.8 |
| 20260506111557 | 11 | 360 | 0.0 | 0.0 | 0.00 | 0.03 | 0.00 | 88 | 1018.7 |
| 20260506111056 | 11 | 360 | 0.0 | 0.0 | 0.00 | 0.03 | 0.00 | 88 | 1018.6 |
| 20260506110556 | 11 | 360 | 0.0 | 0.0 | 0.00 | 0.03 | 0.00 | 88 | 1018.6 |
| 20260506105558 | 11 | 360 | 0.0 | 0.0 | 0.00 | 0.08 | 0.00 | 87 | 1018.6 |
| 20260506105055 | 11 | 360 | 0.0 | 0.0 | 0.00 | 0.08 | 0.00 | 87 | 1018.5 |
| 20260506104554 | 11 | 360 | 0.0 | 0.0 | 0.00 | 0.08 | 0.00 | 87 | 1018.5 |
| 20260506104054 | 11 | 360 | 0.0 | 0.0 | 0.00 | 0.08 | 0.00 | 87 | 1018.5 |
| 20260506103554 | 11 | 360 | 0.0 | 0.0 | 0.00 | 0.08 | 0.00 | 88 | 1018.5 |
| 20260506103054 | 11 | 360 | 0.0 | 0.0 | 0.00 | 0.08 | 0.00 | 87 | 1018.5 |
| 20260506102553 | 11 | 360 | 0.0 | 0.0 | 0.00 | 0.08 | 0.00 | 87 | 1018.5 |
| 20260506102053 | 11 | 360 | 0.0 | 0.0 | 0.00 | 0.08 | 0.00 | 87 | 1018.4 |
| 20260506101602 | 11 | 360 | 0.0 | 0.0 | 0.00 | 0.08 | 0.00 | 87 | 1018.4 |
| 20260506101053 | 11 | 360 | 0.0 | 0.0 | 0.00 | 0.08 | 0.00 | 87 | 1018.4 |
| 20260506100552 | 11 | 360 | 0.0 | 0.0 | 0.00 | 0.08 | 0.00 | 87 | 1018.4 |
| 20260506100052 | 11 | 360 | 0.0 | 0.0 | 0.00 | 0.08 | 0.00 | 87 | 1018.4 |
| 20260506095554 | 11 | 360 | 0.0 | 0.0 | 0.00 | 0.08 | 0.00 | 87 | 1018.4 |
| 20260506095051 | 11 | 360 | 0.0 | 0.0 | 0.00 | 0.08 | 0.00 | 87 | 1018.3 |
| 20260506094612 | 11 | 360 | 0.0 | 0.0 | 0.00 | 0.08 | 0.00 | 87 | 1018.4 |
| 20260506094051 | 11 | 360 | 0.0 | 0.0 | 0.00 | 0.08 | 0.00 | 87 | 1018.3 |
| 20260506093551 | 11 | 360 | 0.0 | 0.0 | 0.00 | 0.08 | 0.00 | 87 | 1018.3 |
| 20260506093054 | 11 | 360 | 0.0 | 0.0 | 0.00 | 0.08 | 0.00 | 87 | 1018.3 |
| 20260506092550 | 11 | 360 | 0.0 | 0.0 | 0.00 | 0.08 | 0.00 | 87 | 1018.3 |
| 20260506092050 | 11 | 360 | 0.0 | 0.0 | 0.00 | 0.08 | 0.00 | 87 | 1018.3 |
| 20260506091550 | 11 | 360 | 0.0 | 0.0 | 0.00 | 0.08 | 0.00 | 87 | 1018.4 |
| 20260506091049 | 11 | 360 | 0.0 | 0.0 | 0.00 | 0.08 | 0.00 | 86 | 1018.4 |
| 20260506090548 | 11 | 360 | 0.0 | 0.0 | 0.00 | 0.08 | 0.00 | 86 | 1018.4 |
| 20260506090048 | 11 | 234 | 0.0 | 0.0 | 0.00 | 0.08 | 0.00 | 86 | 1018.5 |
| 20260506085548 | 11 | 234 | 0.0 | 0.0 | 0.00 | 0.08 | 0.00 | 86 | 1018.5 |
| 20260506085047 | 11 | 360 | 0.0 | 0.0 | 0.00 | 0.08 | 0.00 | 86 | 1018.4 |
| 20260506084548 | 11 | 360 | 0.0 | 0.0 | 0.00 | 0.08 | 0.00 | 85 | 1018.3 |
| 20260506084051 | 11 | 234 | 0.0 | 0.0 | 0.00 | 0.08 | 0.00 | 85 | 1018.4 |
| 20260506083546 | 11 | 234 | 0.0 | 0.0 | 0.00 | 0.08 | 0.00 | 85 | 1018.4 |
| 20260506083046 | 11 | 234 | 0.0 | 0.0 | 0.00 | 0.08 | 0.00 | 85 | 1018.4 |
| 20260506082548 | 11 | 235 | 0.0 | 0.0 | 0.00 | 0.08 | 0.00 | 85 | 1018.6 |
| 20260506082044 | 12 | 234 | 0.0 | 0.0 | 0.00 | 0.08 | 0.00 | 84 | 1018.5 |
| 20260506081545 | 12 | 234 | 0.0 | 0.0 | 0.00 | 0.08 | 0.00 | 84 | 1018.6 |
| 20260506081044 | 12 | 234 | 0.0 | 0.0 | 0.00 | 0.08 | 0.00 | 84 | 1018.6 |
| 20260506080542 | 12 | 234 | 0.0 | 0.0 | 0.00 | 0.08 | 0.00 | 83 | 1018.6 |
| 20260506073042 | 12 | 236 | 0.0 | 0.0 | 0.00 | 0.08 | 0.00 | 82 | 1018.2 |
| 20260506072538 | 12 | 236 | 0.0 | 0.0 | 0.00 | 0.08 | 0.00 | 81 | 1018.2 |
| 20260506072037 | 12 | 236 | 0.0 | 0.0 | 0.00 | 0.08 | 0.00 | 81 | 1018.1 |
| 20260506071536 | 12 | 236 | 0.0 | 0.0 | 0.00 | 0.08 | 0.00 | 81 | 1018.1 |
| 20260506071036 | 12 | 236 | 0.0 | 0.0 | 0.00 | 0.08 | 0.00 | 81 | 1018.0 |
| 20260506070534 | 13 | 236 | 0.0 | 0.0 | 0.00 | 0.08 | 0.00 | 81 | 1018.0 |
| 20260506062031 | 13 | 236 | 0.0 | 0.0 | 0.00 | 0.08 | 0.08 | 80 | 1017.6 |
| 20260506061534 | 13 | 236 | 0.0 | 0.0 | 0.00 | 0.08 | 0.08 | 80 | 1017.6 |
| 20260506061032 | 13 | 236 | 0.0 | 0.0 | 0.00 | 0.08 | 0.08 | 80 | 1017.5 |
| 20260506060529 | 13 | 236 | 0.0 | 0.0 | 0.00 | 0.08 | 0.08 | 80 | 1017.5 |
| 20260506051024 | 13 | 235 | 0.0 | 0.0 | 0.00 | 0.08 | 0.08 | 79 | 1017.2 |
| 20260506050526 | 13 | 235 | 0.0 | 0.0 | 0.00 | 0.08 | 0.08 | 79 | 1017.1 |
| 20260506045022 | 13 | 235 | 0.0 | 0.0 | 0.00 | 0.08 | 0.08 | 79 | 1016.9 |
| 20260506044529 | 13 | 235 | 0.0 | 0.0 | 0.00 | 0.08 | 0.08 | 79 | 1016.9 |
| 20260506044021 | 13 | 235 | 0.0 | 0.0 | 0.00 | 0.08 | 0.08 | 79 | 1016.9 |
| 20260506043523 | 13 | 235 | 0.0 | 0.0 | 0.00 | 0.08 | 0.08 | 78 | 1016.9 |
| 20260506043021 | 13 | 235 | 0.0 | 0.0 | 0.00 | 0.08 | 0.08 | 78 | 1016.8 |
| 20260506042520 | 13 | 235 | 0.0 | 0.0 | 0.00 | 0.08 | 0.08 | 78 | 1016.7 |
| 20260506042023 | 14 | 235 | 0.0 | 0.0 | 0.00 | 0.08 | 0.08 | 78 | 1016.6 |
| 20260506041519 | 14 | 235 | 0.0 | 0.0 | 0.00 | 0.08 | 0.08 | 78 | 1016.6 |
| 20260506041018 | 14 | 235 | 0.0 | 0.0 | 0.00 | 0.08 | 0.08 | 78 | 1016.5 |
| 20260506040517 | 14 | 243 | 0.0 | 0.0 | 0.00 | 0.08 | 0.08 | 78 | 1016.5 |
| 20260506040038 | 14 | 243 | 0.0 | 0.0 | 0.00 | 0.08 | 0.08 | 77 | 1016.4 |
| 20260506035516 | 14 | 244 | 0.0 | 0.0 | 0.00 | 0.08 | 0.08 | 77 | 1016.4 |
| 20260506035016 | 14 | 243 | 0.0 | 0.0 | 0.00 | 0.08 | 0.08 | 77 | 1016.4 |
| 20260506034516 | 14 | 243 | 0.0 | 0.0 | 0.00 | 0.08 | 0.08 | 77 | 1016.2 |
| 20260506034015 | 14 | 243 | 0.0 | 0.0 | 0.00 | 0.08 | 0.08 | 77 | 1016.1 |
| 20260506033513 | 14 | 243 | 0.0 | 0.0 | 0.00 | 0.08 | 0.08 | 77 | 1016.1 |
| 20260506033014 | 14 | 243 | 0.0 | 0.0 | 0.00 | 0.08 | 0.08 | 77 | 1016.1 |
| 20260506032513 | 14 | 243 | 0.0 | 0.0 | 0.00 | 0.08 | 0.08 | 77 | 1016.0 |
| 20260506032013 | 15 | 243 | 0.0 | 0.0 | 0.00 | 0.08 | 0.08 | 76 | 1016.0 |
| 20260506031529 | 15 | 243 | 0.0 | 0.0 | 0.00 | 0.08 | 0.08 | 76 | 1015.9 |
| 20260506031015 | 15 | 243 | 0.0 | 0.0 | 0.00 | 0.08 | 0.08 | 76 | 1015.7 |
| 20260506030511 | 15 | 243 | 0.0 | 0.0 | 0.00 | 0.08 | 0.08 | 75 | 1015.7 |
| 20260506030012 | 15 | 243 | 0.0 | 0.0 | 0.00 | 0.08 | 0.08 | 75 | 1015.6 |
| 20260506025510 | 15 | 244 | 0.0 | 0.0 | 0.00 | 0.08 | 0.08 | 75 | 1015.6 |
| 20260506025013 | 15 | 238 | 0.0 | 0.0 | 0.00 | 0.08 | 0.08 | 75 | 1015.5 |
| 20260506024517 | 15 | 238 | 0.0 | 0.0 | 0.00 | 0.08 | 0.08 | 75 | 1015.4 |
| 20260506024010 | 15 | 238 | 0.0 | 0.0 | 0.00 | 0.08 | 0.08 | 74 | 1015.4 |
| 20260506023510 | 15 | 242 | 0.0 | 0.0 | 0.00 | 0.08 | 0.08 | 74 | 1015.5 |
| 20260506023011 | 15 | 241 | 0.0 | 0.0 | 0.00 | 0.08 | 0.08 | 74 | 1015.4 |
| 20260506022509 | 15 | 241 | 0.0 | 0.0 | 0.00 | 0.08 | 0.08 | 74 | 1015.4 |
| 20260506022009 | 15 | 241 | 0.0 | 0.0 | 0.00 | 0.08 | 0.08 | 74 | 1015.3 |
| 20260506021511 | 15 | 241 | 0.0 | 0.0 | 0.00 | 0.08 | 0.08 | 74 | 1015.3 |
| 20260506021009 | 15 | 241 | 0.0 | 0.0 | 0.00 | 0.08 | 0.08 | 74 | 1015.1 |
| 20260506020512 | 15 | 235 | 0.0 | 0.0 | 0.00 | 0.08 | 0.08 | 74 | 1015.1 |
| 20260506020009 | 15 | 235 | 0.0 | 0.0 | 0.00 | 0.08 | 0.08 | 74 | 1015.1 |
| 20260506015508 | 15 | 235 | 0.0 | 0.0 | 0.00 | 0.08 | 0.08 | 74 | 1015.0 |
| 20260506015009 | 15 | 225 | 0.0 | 0.0 | 0.00 | 0.08 | 0.08 | 73 | 1014.9 |
| 20260506014512 | 15 | 240 | 0.0 | 0.0 | 0.00 | 0.08 | 0.08 | 73 | 1015.0 |
| 20260506014008 | 15 | 241 | 0.0 | 0.0 | 0.00 | 0.08 | 0.08 | 73 | 1015.0 |
| 20260506013512 | 15 | 242 | 0.0 | 0.0 | 0.00 | 0.08 | 0.08 | 74 | 1015.0 |
| 20260506013008 | 15 | 242 | 0.0 | 0.0 | 0.00 | 0.08 | 0.08 | 73 | 1015.1 |
| 20260506012510 | 15 | 242 | 0.0 | 0.0 | 0.00 | 0.08 | 0.08 | 73 | 1015.1 |
| 20260506012009 | 15 | 242 | 0.0 | 0.0 | 0.00 | 0.08 | 0.08 | 73 | 1015.1 |
| 20260506011508 | 15 | 360 | 0.0 | 0.0 | 0.00 | 0.08 | 0.08 | 72 | 1015.2 |
| 20260506011007 | 15 | 360 | 0.0 | 0.0 | 0.00 | 0.08 | 0.08 | 72 | 1015.1 |
| 20260506010507 | 16 | 360 | 0.0 | 0.0 | 0.00 | 0.08 | 0.08 | 72 | 1015.1 |
| 20260506010012 | 16 | 360 | 0.0 | 0.0 | 0.00 | 0.08 | 0.08 | 72 | 1015.1 |
| 20260506005507 | 16 | 360 | 0.0 | 0.0 | 0.00 | 0.08 | 0.08 | 72 | 1015.1 |
| 20260506005009 | 16 | 360 | 0.0 | 0.0 | 0.00 | 0.08 | 0.08 | 72 | 1015.0 |
| 20260506004511 | 16 | 360 | 0.0 | 0.0 | 0.00 | 0.08 | 0.08 | 73 | 1014.9 |
| 20260506004009 | 16 | 360 | 0.0 | 0.0 | 0.00 | 0.08 | 0.08 | 73 | 1014.9 |
| 20260506003507 | 16 | 360 | 0.0 | 0.0 | 0.00 | 0.08 | 0.08 | 73 | 1014.9 |
| 20260506003009 | 16 | 360 | 0.0 | 0.0 | 0.00 | 0.08 | 0.08 | 72 | 1014.9 |
| 20260506002505 | 16 | 360 | 0.0 | 0.0 | 0.00 | 0.08 | 0.08 | 71 | 1014.9 |
| 20260506002008 | 16 | 360 | 0.0 | 0.0 | 0.00 | 0.08 | 0.08 | 72 | 1014.9 |
| 20260506001506 | 16 | 360 | 0.0 | 0.0 | 0.00 | 0.08 | 0.08 | 72 | 1014.8 |
| 20260506001008 | 16 | 238 | 0.0 | 0.0 | 0.00 | 0.08 | 0.08 | 71 | 1014.7 |
| 20260506000505 | 16 | 360 | 0.0 | 0.0 | 0.00 | 0.08 | 0.08 | 71 | 1014.7 |
| 20260506000004 | 16 | 360 | 0.0 | 0.0 | 0.00 | 0.08 | 0.08 | 71 | 1014.7 |
| 20260505235504 | 16 | 237 | 0.0 | 0.0 | 0.00 | 0.08 | 0.08 | 70 | 1014.7 |
| 20260505235004 | 16 | 221 | 0.0 | 0.0 | 0.00 | 0.08 | 0.08 | 71 | 1014.7 |
| 20260505234504 | 16 | 232 | 0.0 | 0.0 | 0.00 | 0.08 | 0.08 | 70 | 1014.7 |
| 20260505234004 | 16 | 234 | 0.0 | 0.0 | 0.00 | 0.08 | 0.08 | 71 | 1014.7 |
| 20260505233504 | 16 | 234 | 0.0 | 0.0 | 0.00 | 0.08 | 0.08 | 71 | 1014.7 |
| 20260505233004 | 16 | 239 | 0.0 | 0.0 | 0.00 | 0.08 | 0.08 | 72 | 1014.8 |
| 20260505232507 | 16 | 239 | 0.0 | 0.0 | 0.00 | 0.08 | 0.08 | 71 | 1014.8 |
| 20260505232003 | 16 | 239 | 0.0 | 0.0 | 0.00 | 0.08 | 0.08 | 71 | 1014.8 |
| 20260505231504 | 16 | 360 | 0.0 | 0.0 | 0.00 | 0.08 | 0.08 | 71 | 1014.8 |
| 20260505231003 | 16 | 360 | 0.0 | 0.0 | 0.00 | 0.08 | 0.08 | 71 | 1014.9 |
| 20260505230502 | 16 | 360 | 0.0 | 0.0 | 0.00 | 0.08 | 0.08 | 71 | 1014.9 |
| 20260505230003 | 16 | 360 | 0.0 | 0.0 | 0.00 | 0.08 | 0.08 | 71 | 1014.9 |
| 20260505225505 | 16 | 360 | 0.0 | 0.0 | 0.00 | 0.08 | 0.08 | 71 | 1014.9 |
| 20260505225003 | 16 | 360 | 0.0 | 0.0 | 0.00 | 0.08 | 0.08 | 71 | 1014.9 |
| 20260505224501 | 16 | 217 | 0.0 | 0.0 | 0.00 | 0.08 | 0.08 | 72 | 1014.9 |
| 20260505224100 | 16 | 229 | 0.0 | 0.0 | 0.00 | 0.08 | 0.08 | 72 | 1014.8 |
| 20260505223559 | 16 | 227 | 0.0 | 0.0 | 0.00 | 0.08 | 0.08 | 73 | 1014.8 |
| 20260505223058 | 16 | 211 | 0.0 | 0.0 | 0.00 | 0.08 | 0.08 | 73 | 1014.8 |
| 20260505222557 | 16 | 211 | 0.0 | 0.0 | 0.00 | 0.08 | 0.08 | 73 | 1014.9 |
| 20260505222057 | 16 | 210 | 0.0 | 0.0 | 0.00 | 0.08 | 0.08 | 74 | 1015.0 |
| 20260505221557 | 16 | 226 | 0.0 | 0.0 | 0.00 | 0.08 | 0.08 | 74 | 1015.0 |
| 20260505221054 | 15 | 229 | 0.0 | 0.0 | 0.00 | 0.08 | 0.08 | 75 | 1015.0 |
| 20260505220557 | 15 | 360 | 0.0 | 0.0 | 0.00 | 0.08 | 0.08 | 75 | 1015.0 |
| 20260505220053 | 15 | 360 | 0.0 | 0.0 | 0.00 | 0.08 | 0.08 | 75 | 1015.1 |
| 20260505215552 | 15 | 360 | 0.0 | 0.0 | 0.00 | 0.08 | 0.08 | 75 | 1015.2 |
| 20260505215051 | 15 | 360 | 0.0 | 0.0 | 0.00 | 0.08 | 0.08 | 75 | 1015.2 |
| 20260505214555 | 15 | 360 | 0.0 | 0.0 | 0.00 | 0.08 | 0.08 | 76 | 1015.2 |
| 20260505214051 | 15 | 360 | 0.0 | 0.0 | 0.00 | 0.08 | 0.08 | 76 | 1015.2 |
| 20260505213550 | 15 | 360 | 0.0 | 0.0 | 0.00 | 0.08 | 0.08 | 77 | 1015.3 |
| 20260505213048 | 15 | 360 | 0.0 | 0.0 | 0.00 | 0.08 | 0.08 | 77 | 1015.3 |
| 20260505212547 | 15 | 360 | 0.0 | 0.0 | 0.00 | 0.08 | 0.08 | 77 | 1015.3 |
| 20260505212047 | 15 | 360 | 0.0 | 0.0 | 0.00 | 0.08 | 0.08 | 78 | 1015.4 |
| 20260505211547 | 15 | 360 | 0.0 | 0.0 | 0.00 | 0.08 | 0.08 | 77 | 1015.4 |
| 20260505211051 | 15 | 360 | 0.0 | 0.0 | 0.00 | 0.08 | 0.08 | 77 | 1015.4 |
| 20260505210545 | 15 | 360 | 0.0 | 0.0 | 0.00 | 0.08 | 0.08 | 78 | 1015.4 |
| 20260505210045 | 15 | 360 | 0.0 | 0.0 | 0.00 | 0.08 | 0.08 | 78 | 1015.3 |
| 20260505205545 | 14 | 360 | 0.0 | 0.0 | 0.00 | 0.08 | 0.08 | 78 | 1015.4 |
| 20260505205046 | 14 | 360 | 0.0 | 0.0 | 0.00 | 0.08 | 0.08 | 78 | 1015.4 |
| 20260505204547 | 14 | 360 | 0.0 | 0.0 | 0.00 | 0.08 | 0.08 | 78 | 1015.4 |
| 20260505204044 | 14 | 360 | 0.0 | 0.0 | 0.00 | 0.08 | 0.08 | 77 | 1015.4 |
| 20260505203548 | 14 | 360 | 0.0 | 0.0 | 0.00 | 0.08 | 0.08 | 78 | 1015.4 |
| 20260505203047 | 14 | 360 | 0.0 | 0.0 | 0.00 | 0.08 | 0.08 | 79 | 1015.4 |
| 20260505202549 | 14 | 360 | 0.0 | 0.0 | 0.00 | 0.08 | 0.08 | 80 | 1015.4 |
| 20260505202045 | 14 | 360 | 0.0 | 0.0 | 0.00 | 0.08 | 0.08 | 81 | 1015.4 |
| 20260505201544 | 14 | 360 | 0.0 | 0.0 | 0.00 | 0.08 | 0.08 | 82 | 1015.4 |
| 20260505201041 | 14 | 360 | 0.0 | 0.0 | 0.00 | 0.08 | 0.08 | 82 | 1015.4 |
| 20260505200540 | 13 | 360 | 0.0 | 0.0 | 0.00 | 0.08 | 0.08 | 83 | 1015.4 |
| 20260505200045 | 13 | 360 | 0.0 | 0.0 | 0.00 | 0.08 | 0.08 | 84 | 1015.5 |
| 20260505195538 | 13 | 360 | 0.0 | 0.0 | 0.00 | 0.08 | 0.08 | 84 | 1015.6 |
| 20260505195039 | 13 | 360 | 0.0 | 0.0 | 0.00 | 0.08 | 0.08 | 85 | 1015.6 |
| 20260505194540 | 13 | 360 | 0.0 | 0.0 | 0.00 | 0.08 | 0.08 | 86 | 1015.6 |
| 20260505194138 | 13 | 360 | 0.0 | 0.0 | 0.00 | 0.08 | 0.08 | 87 | 1015.6 |
| 20260505193536 | 13 | 360 | 0.0 | 0.0 | 0.00 | 0.08 | 0.08 | 87 | 1015.5 |
| 20260505193037 | 13 | 360 | 0.0 | 0.0 | 0.00 | 0.08 | 0.08 | 88 | 1015.5 |
| 20260505192538 | 13 | 153 | 0.0 | 0.0 | 0.00 | 0.08 | 0.08 | 88 | 1015.5 |
| 20260505192036 | 13 | 153 | 0.0 | 0.0 | 0.00 | 0.08 | 0.08 | 89 | 1015.6 |
| 20260505191537 | 13 | 153 | 0.0 | 0.0 | 0.00 | 0.08 | 0.08 | 89 | 1015.6 |
| 20260505191037 | 13 | 153 | 0.0 | 0.0 | 0.00 | 0.08 | 0.08 | 89 | 1015.5 |
| 20260505190533 | 13 | 153 | 0.0 | 0.0 | 0.00 | 0.08 | 0.08 | 89 | 1015.5 |
| 20260505190038 | 13 | 153 | 0.0 | 0.0 | 0.00 | 0.08 | 0.08 | 90 | 1015.5 |
| 20260505185532 | 13 | 153 | 0.0 | 0.0 | 0.00 | 0.08 | 0.08 | 90 | 1015.4 |
| 20260505185032 | 13 | 153 | 0.0 | 0.0 | 0.00 | 0.08 | 0.08 | 90 | 1015.3 |
| 20260505184531 | 13 | 153 | 0.0 | 0.0 | 0.00 | 0.08 | 0.08 | 90 | 1015.4 |
| 20260505184031 | 13 | 153 | 0.0 | 0.0 | 0.00 | 0.08 | 0.08 | 90 | 1015.4 |
| 20260505183531 | 13 | 152 | 0.0 | 0.0 | 0.00 | 0.08 | 0.08 | 90 | 1015.4 |
| 20260505183033 | 13 | 152 | 0.0 | 0.0 | 0.00 | 0.08 | 0.08 | 90 | 1015.4 |
| 20260505182530 | 13 | 184 | 0.0 | 0.0 | 0.00 | 0.08 | 0.08 | 90 | 1015.4 |
| 20260505182030 | 13 | 150 | 0.0 | 0.0 | 0.00 | 0.08 | 0.08 | 91 | 1015.4 |
| 20260505181529 | 13 | 150 | 0.0 | 0.0 | 0.00 | 0.08 | 0.08 | 91 | 1015.3 |
| 20260505181029 | 13 | 150 | 0.0 | 0.0 | 0.00 | 0.08 | 0.08 | 91 | 1015.3 |
| 20260505180527 | 12 | 150 | 0.0 | 0.0 | 0.00 | 0.08 | 0.08 | 91 | 1015.2 |
| 20260505180027 | 12 | 153 | 0.0 | 0.0 | 0.00 | 0.08 | 0.08 | 91 | 1015.2 |
| 20260505175525 | 12 | 162 | 0.0 | 0.0 | 0.00 | 0.08 | 0.08 | 91 | 1015.3 |
| 20260505175025 | 12 | 161 | 0.0 | 0.0 | 0.00 | 0.08 | 0.08 | 91 | 1015.2 |
| 20260505174524 | 12 | 161 | 0.0 | 0.0 | 0.00 | 0.08 | 0.08 | 91 | 1015.2 |
| 20260505174026 | 12 | 156 | 0.0 | 0.0 | 0.00 | 0.08 | 0.08 | 91 | 1015.2 |
| 20260505173521 | 12 | 157 | 0.0 | 0.0 | 0.00 | 0.08 | 0.08 | 91 | 1015.2 |
| 20260505173022 | 12 | 157 | 0.0 | 0.0 | 0.00 | 0.08 | 0.08 | 91 | 1015.1 |
| 20260505172521 | 12 | 157 | 0.0 | 0.0 | 0.00 | 0.08 | 0.08 | 91 | 1015.0 |
| 20260505172021 | 12 | 157 | 0.0 | 0.0 | 0.00 | 0.08 | 0.08 | 90 | 1015.0 |
| 20260505171524 | 12 | 156 | 0.0 | 0.0 | 0.00 | 0.08 | 0.08 | 90 | 1014.9 |
| 20260505171020 | 12 | 158 | 0.0 | 0.0 | 0.00 | 0.08 | 0.08 | 90 | 1014.9 |
| 20260505170519 | 12 | 158 | 0.0 | 0.0 | 0.00 | 0.08 | 0.08 | 90 | 1015.0 |
| 20260505170019 | 12 | 157 | 0.0 | 0.0 | 0.00 | 0.08 | 0.08 | 89 | 1014.9 |
| 20260505165518 | 12 | 157 | 0.0 | 0.0 | 0.00 | 0.08 | 0.08 | 89 | 1015.0 |
| 20260505165018 | 12 | 161 | 0.0 | 0.0 | 0.00 | 0.08 | 0.08 | 89 | 1015.0 |